N26ES KPRC-KL45

Flight info

Callsign N26ES
Flight time N/A
Altitude 40000
Route DRK V12 PMD V137 JEFFY V165 LOPES
Aircraft CL60/M-SBDE1E2E3FGHIJ1J4J5J7M3RWXYZ/LB1V1D1

Departure

Time 2026-04-28 00:55
Airport Prescott Regional Airport - Ernest A. Love Field (KPRC)

Arrival

Time N/A
Airport KL45
Time Latitude Longitude Altitude Speed Heading
2026-04-27 23:50 34.65134 -112.42061 5012 ft 0 kts 130°
2026-04-28 00:48 34.65132 -112.42058 5012 ft 2 kts 133°
2026-04-28 00:48 34.65128 -112.42052 5013 ft 0 kts 131°
2026-04-28 00:48 34.65129 -112.42039 5012 ft 4 kts 30°
2026-04-28 00:48 34.65178 -112.42060 5011 ft 9 kts 14°
2026-04-28 00:49 34.65245 -112.41989 5007 ft 16 kts 42°
2026-04-28 00:49 34.65348 -112.41878 4999 ft 11 kts 42°
2026-04-28 00:49 34.65410 -112.41814 4997 ft 0 kts 41°
2026-04-28 00:50 34.65413 -112.41811 4997 ft 4 kts 41°
2026-04-28 00:50 34.65483 -112.41736 4992 ft 16 kts 41°
2026-04-28 00:51 34.65551 -112.41664 4987 ft 12 kts 41°
2026-04-28 00:51 34.65625 -112.41588 4983 ft 14 kts 41°
2026-04-28 00:51 34.65707 -112.41499 4980 ft 17 kts 44°
2026-04-28 00:51 34.65792 -112.41399 4975 ft 15 kts 45°
2026-04-28 00:52 34.65850 -112.41288 4972 ft 14 kts 59°
2026-04-28 00:52 34.65935 -112.41183 4967 ft 20 kts 41°
2026-04-28 00:52 34.66034 -112.41082 4963 ft 16 kts 43°
2026-04-28 00:52 34.66098 -112.41016 4961 ft 5 kts 31°
2026-04-28 00:53 34.66134 -112.41022 4960 ft 6 kts 313°
2026-04-28 00:53 34.66174 -112.41084 4960 ft 11 kts 308°
2026-04-28 00:53 34.66195 -112.41155 4960 ft 6 kts 229°
2026-04-28 00:53 34.66190 -112.41161 4960 ft 0 kts 223°
2026-04-28 00:55 34.66046 -112.41314 4966 ft 74 kts 221°
2026-04-28 00:55 34.65412 -112.41989 5042 ft 155 kts 221°
2026-04-28 00:55 34.64561 -112.42912 5764 ft 177 kts 220°
2026-04-28 00:56 34.63586 -112.43896 6704 ft 193 kts 217°
2026-04-28 00:56 34.62483 -112.44955 7642 ft 216 kts 225°
2026-04-28 00:56 34.61779 -112.46596 8498 ft 232 kts 261°
2026-04-28 00:56 34.62091 -112.48525 9388 ft 245 kts 295°
2026-04-28 00:57 34.63204 -112.50064 10307 ft 254 kts 323°
2026-04-28 00:57 34.64931 -112.50688 11207 ft 268 kts 358°
2026-04-28 00:57 34.66788 -112.50435 12097 ft 272 kts
2026-04-28 00:57 34.68653 -112.50516 12688 ft 273 kts 336°
2026-04-28 00:58 34.70221 -112.51891 13192 ft 286 kts 300°
2026-04-28 00:58 34.70828 -112.54144 14153 ft 291 kts 272°
2026-04-28 00:58 34.70952 -112.56598 15170 ft 301 kts 270°
2026-04-28 00:58 34.71024 -112.59164 16211 ft 310 kts 269°
2026-04-28 00:59 34.71077 -112.61842 17234 ft 319 kts 269°
2026-04-28 00:59 34.71117 -112.64529 18202 ft 326 kts 268°
2026-04-28 00:59 34.71156 -112.67297 19355 ft 327 kts 268°
2026-04-28 00:59 34.71214 -112.70061 20515 ft 327 kts 268°
2026-04-28 01:00 34.71284 -112.72802 21602 ft 327 kts 268°
2026-04-28 01:00 34.71354 -112.75581 22596 ft 329 kts 267°
2026-04-28 01:00 34.71442 -112.78359 23534 ft 331 kts 268°
2026-04-28 01:00 34.71539 -112.81135 24494 ft 332 kts 268°
2026-04-28 01:01 34.71639 -112.83997 25317 ft 337 kts 268°
2026-04-28 01:01 34.71738 -112.86845 26061 ft 340 kts 268°
2026-04-28 01:01 34.71840 -112.89751 26786 ft 343 kts 268°
2026-04-28 01:01 34.71942 -112.92636 27501 ft 346 kts 268°
2026-04-28 01:02 34.72046 -112.95582 28146 ft 349 kts 268°
2026-04-28 01:02 34.72149 -112.98547 28774 ft 352 kts 268°
2026-04-28 01:02 34.72255 -113.01543 29435 ft 354 kts 268°
2026-04-28 01:02 34.72362 -113.04565 30048 ft 355 kts 268°
2026-04-28 01:03 34.72467 -113.07580 30565 ft 358 kts 268°
2026-04-28 01:03 34.72570 -113.10580 31040 ft 361 kts 268°
2026-04-28 01:03 34.72676 -113.13637 31485 ft 364 kts 268°
2026-04-28 01:03 34.72781 -113.16721 31881 ft 367 kts 268°
2026-04-28 01:04 34.72888 -113.19867 32292 ft 369 kts 268°
2026-04-28 01:04 34.72995 -113.23019 32655 ft 372 kts 269°
2026-04-28 01:04 34.73102 -113.26172 32988 ft 374 kts 268°
2026-04-28 01:04 34.73208 -113.29333 33339 ft 375 kts 268°
2026-04-28 01:05 34.73312 -113.32496 33622 ft 377 kts 269°
2026-04-28 01:05 34.73418 -113.35725 33939 ft 378 kts 268°
2026-04-28 01:05 34.73523 -113.38906 34249 ft 378 kts 269°
2026-04-28 01:05 34.73627 -113.42108 34568 ft 377 kts 269°
2026-04-28 01:06 34.73729 -113.45278 34915 ft 376 kts 269°
2026-04-28 01:06 34.73831 -113.48447 35252 ft 374 kts 269°
2026-04-28 01:06 34.73932 -113.51638 35500 ft 375 kts 269°
2026-04-28 01:06 34.74033 -113.54810 35771 ft 374 kts 269°
2026-04-28 01:07 34.74132 -113.57968 36057 ft 373 kts 269°
2026-04-28 01:07 34.74231 -113.61164 36358 ft 373 kts 269°
2026-04-28 01:07 34.74328 -113.64314 36659 ft 372 kts 269°
2026-04-28 01:07 34.74426 -113.67522 36953 ft 372 kts 268°
2026-04-28 01:08 34.74521 -113.70693 37231 ft 372 kts 269°
2026-04-28 01:08 34.74614 -113.73817 37512 ft 372 kts 269°
2026-04-28 01:08 34.74708 -113.77003 37786 ft 372 kts 268°
2026-04-28 01:08 34.74800 -113.80128 38048 ft 371 kts 268°
2026-04-28 01:09 34.74892 -113.83270 38330 ft 370 kts 269°
2026-04-28 01:09 34.74983 -113.86379 38577 ft 370 kts 268°
2026-04-28 01:09 34.75074 -113.89533 38754 ft 371 kts 268°
2026-04-28 01:09 34.75164 -113.92686 38998 ft 370 kts 268°
2026-04-28 01:10 34.75253 -113.95797 39170 ft 370 kts 269°
2026-04-28 01:10 34.75341 -113.98935 39286 ft 372 kts 268°
2026-04-28 01:10 34.75428 -114.02088 39353 ft 375 kts 269°
2026-04-28 01:10 34.75515 -114.05257 39542 ft 374 kts 269°
2026-04-28 01:11 34.75601 -114.08448 39669 ft 375 kts 268°
2026-04-28 01:11 34.75685 -114.11615 39825 ft 375 kts 269°
2026-04-28 01:11 34.75769 -114.14774 39959 ft 375 kts 268°
2026-04-28 01:12 34.75935 -114.21160 39947 ft 379 kts 269°
2026-04-28 01:12 34.76098 -114.27532 39929 ft 378 kts 269°
2026-04-28 01:13 34.76258 -114.33911 39925 ft 375 kts 269°
2026-04-28 01:13 34.76490 -114.43528 39932 ft 384 kts 269°
2026-04-28 01:14 34.76645 -114.50095 39895 ft 391 kts 269°
2026-04-28 01:14 34.76800 -114.56777 39891 ft 398 kts 268°
2026-04-28 01:15 34.76953 -114.63547 39903 ft 400 kts 269°
2026-04-28 01:15 34.77105 -114.70342 39920 ft 400 kts 269°
2026-04-28 01:16 34.77252 -114.77106 39925 ft 399 kts 268°
2026-04-28 01:16 34.77394 -114.83888 39929 ft 398 kts 269°
2026-04-28 01:17 34.77531 -114.90588 39920 ft 398 kts 268°
2026-04-28 01:17 34.77665 -114.97336 39920 ft 399 kts 269°
2026-04-28 01:18 34.77799 -115.04089 39952 ft 399 kts 269°
2026-04-28 01:18 34.77927 -115.10841 39941 ft 399 kts 269°
2026-04-28 01:19 34.78051 -115.17588 39938 ft 398 kts 269°
2026-04-28 01:19 34.78169 -115.24333 39938 ft 399 kts 269°
2026-04-28 01:20 34.78285 -115.31113 39953 ft 400 kts 268°
2026-04-28 01:20 34.78396 -115.37869 39952 ft 401 kts 268°
2026-04-28 01:21 34.78505 -115.44654 39949 ft 401 kts 269°
2026-04-28 01:21 34.78610 -115.51444 39961 ft 402 kts 269°
2026-04-28 01:22 34.78713 -115.58281 39961 ft 402 kts 269°
2026-04-28 01:22 34.78811 -115.65070 39960 ft 402 kts 268°
2026-04-28 01:23 34.78905 -115.71981 39963 ft 403 kts 268°
2026-04-28 01:23 34.78996 -115.78843 39978 ft 404 kts 268°
2026-04-28 01:24 34.79083 -115.85704 39955 ft 403 kts 268°
2026-04-28 01:24 34.79166 -115.92526 39955 ft 403 kts 269°
2026-04-28 01:25 34.79245 -115.99363 39952 ft 404 kts 269°
2026-04-28 01:25 34.79320 -116.06216 39960 ft 405 kts 269°
2026-04-28 01:26 34.79392 -116.13053 39962 ft 405 kts 268°
2026-04-28 01:26 34.79460 -116.19931 39964 ft 405 kts 268°
2026-04-28 01:27 34.79523 -116.26785 39969 ft 404 kts 269°
2026-04-28 01:27 34.79583 -116.33600 39968 ft 403 kts 269°
2026-04-28 01:28 34.79639 -116.40442 39972 ft 403 kts 269°
2026-04-28 01:28 34.79612 -116.47298 39980 ft 404 kts 264°
2026-04-28 01:29 34.78959 -116.54110 39975 ft 404 kts 262°
2026-04-28 01:29 34.78289 -116.60877 39969 ft 404 kts 262°
2026-04-28 01:30 34.77609 -116.67730 39981 ft 404 kts 262°
2026-04-28 01:30 34.76929 -116.74555 39999 ft 403 kts 262°
2026-04-28 01:31 34.76327 -116.80586 40002 ft 403 kts 262°
2026-04-28 01:31 34.75680 -116.87038 39995 ft 403 kts 262°
2026-04-28 01:32 34.74992 -116.93872 39984 ft 403 kts 262°
2026-04-28 01:32 34.74661 -116.97153 39748 ft 408 kts 262°
2026-04-28 01:32 34.74312 -117.00598 39264 ft 406 kts 262°
2026-04-28 01:33 34.73969 -117.03973 38771 ft 401 kts 262°
2026-04-28 01:33 34.73626 -117.07344 38249 ft 399 kts 262°
2026-04-28 01:33 34.73287 -117.10660 37731 ft 398 kts 262°
2026-04-28 01:33 34.72944 -117.13994 37197 ft 399 kts 263°
2026-04-28 01:34 34.72598 -117.17358 36666 ft 399 kts 262°
2026-04-28 01:34 34.72250 -117.20727 36124 ft 401 kts 262°
2026-04-28 01:34 34.71904 -117.24081 35643 ft 401 kts 263°
2026-04-28 01:34 34.71551 -117.27473 35078 ft 405 kts 263°
2026-04-28 01:35 34.71198 -117.30869 34533 ft 406 kts 262°
2026-04-28 01:35 34.70843 -117.34247 34028 ft 410 kts 262°
2026-04-28 01:35 34.70478 -117.37720 33433 ft 411 kts 263°
2026-04-28 01:35 34.70118 -117.41155 32912 ft 412 kts 263°
2026-04-28 01:36 34.69758 -117.44589 32385 ft 411 kts 263°
2026-04-28 01:36 34.69392 -117.48055 31816 ft 408 kts 263°
2026-04-28 01:36 34.69036 -117.51435 31316 ft 405 kts 263°
2026-04-28 01:36 34.68678 -117.54821 30721 ft 404 kts 263°
2026-04-28 01:37 34.68319 -117.58205 30202 ft 402 kts 263°
2026-04-28 01:37 34.67961 -117.61573 29651 ft 399 kts 264°
2026-04-28 01:37 34.67606 -117.64904 29149 ft 397 kts 264°
2026-04-28 01:37 34.67246 -117.68270 28609 ft 395 kts 263°
2026-04-28 01:38 34.66888 -117.71613 28077 ft 393 kts 263°
2026-04-28 01:38 34.66537 -117.74880 27560 ft 391 kts 263°
2026-04-28 01:38 34.66185 -117.78144 27039 ft 390 kts 263°
2026-04-28 01:38 34.65829 -117.81422 26533 ft 388 kts 263°
2026-04-28 01:39 34.65339 -117.84656 26108 ft 387 kts 260°
2026-04-28 01:39 34.64933 -117.87899 25516 ft 385 kts 264°
2026-04-28 01:39 34.64611 -117.91123 25011 ft 381 kts 264°
2026-04-28 01:39 34.64282 -117.94340 24485 ft 379 kts 264°
2026-04-28 01:40 34.63958 -117.97473 23994 ft 377 kts 264°
2026-04-28 01:40 34.63628 -118.00629 23495 ft 375 kts 264°
2026-04-28 01:40 34.63294 -118.03816 22994 ft 373 kts 265°
2026-04-28 01:40 34.63311 -118.06941 22508 ft 369 kts 279°
2026-04-28 01:41 34.63941 -118.09977 21988 ft 366 kts 286°
2026-04-28 01:41 34.64614 -118.12968 21517 ft 363 kts 284°
2026-04-28 01:41 34.65253 -118.15931 21035 ft 361 kts 285°
2026-04-28 01:41 34.65894 -118.18894 20556 ft 360 kts 285°
2026-04-28 01:42 34.66525 -118.21811 20090 ft 358 kts 285°
2026-04-28 01:42 34.67155 -118.24723 19607 ft 355 kts 285°
2026-04-28 01:42 34.67777 -118.27593 19139 ft 353 kts 285°
2026-04-28 01:42 34.68399 -118.30473 18671 ft 350 kts 285°
2026-04-28 01:43 34.69018 -118.33334 18208 ft 348 kts 285°
2026-04-28 01:43 34.69637 -118.36200 17748 ft 346 kts 285°
2026-04-28 01:43 34.70244 -118.39010 17283 ft 344 kts 286°
2026-04-28 01:43 34.70853 -118.41830 16848 ft 342 kts 285°
2026-04-28 01:44 34.71454 -118.44617 16348 ft 341 kts 285°
2026-04-28 01:44 34.72055 -118.47405 15892 ft 338 kts 285°
2026-04-28 01:44 34.72644 -118.50142 15443 ft 337 kts 285°
2026-04-28 01:44 34.73243 -118.52921 14987 ft 334 kts 286°
2026-04-28 01:45 34.73843 -118.55626 14556 ft 333 kts 289°
2026-04-28 01:45 34.74865 -118.58141 14091 ft 331 kts 305°
2026-04-28 01:45 34.76487 -118.60133 13626 ft 331 kts 322°
2026-04-28 01:45 34.78531 -118.61354 13133 ft 333 kts 339°
2026-04-28 01:46 34.80789 -118.62171 12617 ft 332 kts 341°
2026-04-28 01:46 34.83008 -118.62965 12123 ft 330 kts 341°
2026-04-28 01:46 34.85190 -118.63748 11751 ft 327 kts 341°
2026-04-28 01:46 34.87406 -118.64545 11488 ft 328 kts 341°
2026-04-28 01:47 34.89605 -118.65335 11230 ft 328 kts 341°
2026-04-28 01:47 34.91803 -118.66125 10982 ft 326 kts 341°
2026-04-28 01:47 34.93991 -118.66911 10731 ft 325 kts 341°
2026-04-28 01:47 34.96200 -118.67704 10381 ft 325 kts 341°
2026-04-28 01:48 34.98352 -118.68481 10049 ft 316 kts 340°
2026-04-28 01:48 35.00238 -118.69580 10128 ft 288 kts 323°
2026-04-28 01:48 35.01636 -118.71226 10164 ft 266 kts 307°
2026-04-28 01:48 35.02549 -118.73155 10048 ft 267 kts 294°
2026-04-28 01:49 35.03072 -118.75369 9481 ft 274 kts 279°
2026-04-28 01:49 35.03159 -118.77705 8887 ft 275 kts 271°
2026-04-28 01:49 35.03138 -118.80005 8257 ft 271 kts 271°
2026-04-28 01:49 35.03121 -118.82315 7622 ft 268 kts 271°
2026-04-28 01:50 35.03166 -118.84576 6988 ft 263 kts 280°
2026-04-28 01:50 35.03788 -118.86633 6346 ft 256 kts 304°
2026-04-28 01:50 35.04927 -118.88144 5697 ft 234 kts 318°
2026-04-28 01:50 35.06093 -118.89420 5219 ft 213 kts 318°
2026-04-28 01:51 35.07205 -118.90648 4919 ft 218 kts 319°
2026-04-28 01:51 35.08316 -118.91876 4537 ft 215 kts 319°
2026-04-28 01:51 35.09433 -118.93109 4206 ft 215 kts 319°
2026-04-28 01:51 35.10557 -118.94350 3856 ft 214 kts 319°
2026-04-28 01:52 35.11658 -118.95564 3523 ft 213 kts 319°
2026-04-28 01:52 35.12765 -118.96767 3199 ft 212 kts 323°
2026-04-28 01:52 35.14115 -118.97479 3041 ft 208 kts 351°
2026-04-28 01:52 35.15566 -118.97661 3036 ft 210 kts 355°
2026-04-28 01:53 35.17024 -118.97819 3050 ft 209 kts 355°
2026-04-28 01:53 35.18438 -118.97982 3027 ft 194 kts 355°
2026-04-28 01:53 35.19768 -118.98136 2766 ft 185 kts 354°
2026-04-28 01:53 35.20977 -118.98276 2561 ft 168 kts 355°
2026-04-28 01:54 35.22129 -118.98409 2317 ft 163 kts 355°
2026-04-28 01:54 35.23262 -118.98540 2084 ft 160 kts 355°
2026-04-28 01:54 35.24345 -118.98666 1870 ft 145 kts 355°
2026-04-28 01:54 35.25275 -118.98772 1726 ft 130 kts 355°
2026-04-28 01:55 35.26173 -118.98883 1483 ft 125 kts 353°
2026-04-28 01:55 35.27034 -118.99000 1297 ft 123 kts 354°
2026-04-28 01:55 35.27887 -118.99091 1171 ft 123 kts 356°
2026-04-28 01:55 35.28743 -118.99169 1067 ft 123 kts 356°
2026-04-28 01:56 35.29586 -118.99263 960 ft 123 kts 355°
2026-04-28 01:56 35.30458 -118.99360 763 ft 124 kts 354°
2026-04-28 01:56 35.31312 -118.99464 545 ft 121 kts 354°
2026-04-28 01:56 35.32150 -118.99565 392 ft 117 kts 354°
2026-04-28 01:57 35.32803 -118.99641 388 ft 50 kts 355°
2026-04-28 01:57 35.32997 -118.99664 388 ft 11 kts 348°
2026-04-28 01:57 35.33025 -118.99718 388 ft 10 kts 265°
2026-04-28 01:57 35.32982 -118.99742 388 ft 9 kts 173°
2026-04-28 01:58 35.32899 -118.99731 388 ft 14 kts 174°
2026-04-28 01:58 35.32806 -118.99721 387 ft 13 kts 175°
2026-04-28 01:58 35.32735 -118.99714 387 ft 9 kts 174°
2026-04-28 01:58 35.32653 -118.99704 387 ft 12 kts 174°
2026-04-28 01:59 35.32573 -118.99695 387 ft 0 kts 174°
2026-04-28 02:00 35.32531 -118.99689 387 ft 9 kts 175°
2026-04-28 02:00 35.32497 -118.99686 387 ft 2 kts 174°
2026-04-28 02:00 35.32466 -118.99682 387 ft 5 kts 174°
2026-04-28 02:00 35.32457 -118.99681 387 ft 0 kts 174°
2026-04-28 02:01 35.32438 -118.99693 387 ft 3 kts 261°
2026-04-28 02:02 35.32471 -118.99711 387 ft 8 kts 356°
2026-04-28 02:02 35.32536 -118.99720 387 ft 5 kts 353°
2026-04-28 02:02 35.32567 -118.99738 387 ft 3 kts 289°
2026-04-28 02:02 35.32583 -118.99754 387 ft 2 kts
2026-04-28 02:03 35.32587 -118.99753 387 ft 0 kts